Tracking 17886 objects as of 8-December-2016
HD Live streaming from Space Station
objects crossing your sky now

COSMOS 1596

Track COSMOS 1596 now!
COSMOS 1596 is classified as:


NORAD ID: 15267
Int'l Code: 1984-096A
Perigee: 4,718.4 km
Apogee: 35,604.3 km
Inclination: 68.2 °
Period: 716.8 minutes
Semi major axis: 26532 km
RCS: 8.4284 m2 (large)
Launch date: September 7, 1984
Source: Commonwealth of Independent States (former USSR) (CIS)
Launch site: PLESETSK MISSILE AND SPACE COMPLEX (PKMTR)
Your satellite tracking list
Your tracking list is empty





NASA's NSSDC Master Catalog

Two Line Element Set (TLE):
1 15267U 84096A   16343.11134988 -.00000192  00000-0  00000+0 0  9992
2 15267  68.1795  14.4110 5820416  94.1057   0.3774  2.00880811236305
Source of the keplerian elements: AFSPC